Regional Weather Roundup
Issued by NWS Sterling, VA

Home | Current Version | Previous Version | Graphics & Text | Print | Product List | Glossary On
Versions: 1 2 3 4 5 6 7 8 9 10 11 12 13 14 15 16 17 18 19 20 21 22 23 24 25 26 27 28 29 30 31 32 33 34 35 36 37 38 39 40 41 42 43 44 45 46 47 48 49 50
000
ASUS41 KLWX 210410
RWRLWX

REGIONAL WEATHER ROUNDUP
NATIONAL WEATHER SERVICE BALTIMORE MD/WASHINGTON DC
1100 PM EST SAT DEC 20 2014

Note: "FAIR" indicates few or no clouds below 12,000 feet
with no significant weather and/or obstructions to visibility.
 TC=TEMPERATURE CELSIUS

 * =Non NWS site. Station does not report precipitation (e.g. rain,
    snow, etc.), thunder, or fog.

DCZ001-MDZ009-015-VAZ040>042-051-053>054-210500-
WASHINGTON METRO

CITY           SKY/WX    TMP DP  RH WIND       PRES   REMARKS
WASHINGTON NAT MOCLDY    37  20  50 NW3       30.31S
DULLES         CLOUDY    30  25  81 SW3       30.30S
ANDREWS AFB    PTCLDY    29  24  78 CALM      30.29S
FT BELVOIR     PTCLDY    30  25  81 CALM      30.31S
QUANTICO       CLOUDY    32  25  75 NW5       30.32S
COLLEGE PARK*  CLOUDY    32  27  80 CALM      30.30S
LEESBURG*      CLOUDY    32  28  86 MISG      30.30S
MANASSAS*      CLOUDY    30  28  93 CALM      30.30S
GAITHERSBURG*  CLOUDY    30  21  69 CALM      30.32S

$$

MDZ006>007-011-014-210500-
BALTIMORE METRO

CITY           SKY/WX    TMP DP  RH WIND       PRES   REMARKS
BWI AIRPORT    MOCLDY    33  25  72 CALM      30.30R
MD SCIENCE CTR   N/A     35  23  61 MISG      30.31R
MARTIN STATE   CLOUDY    32  30  93 CALM      30.33R
ANNAPOLIS      CLOUDY    36  25  64 CALM      30.31R
FORT MEADE*    MOCLDY    32  27  80 CALM      30.32S

$$

MDZ012-015-019>023-210500-
MARYLAND EASTERN SHORE

CITY           SKY/WX    TMP DP  RH WIND       PRES   REMARKS
OCEAN CITY     CLEAR     25  22  88 NW3       30.30S
SALISBURY      PTCLDY    30  23  75 CALM      30.30F
BAY BRIDGE AP*   N/A     34  27  75 CALM      30.31S
CAMBRIDGE*     MOCLDY    32  28  86 CALM      30.30S
EASTON*        MOCLDY    34  29  81 CALM      30.34S

$$

MDZ017>025-210500-
SOUTHERN MARYLAND

CITY           SKY/WX    TMP DP  RH WIND       PRES   REMARKS
PATUXENT RIVER CLEAR     27  21  78 W3        30.30S
ST INIGOES     PTCLDY    29  23  78 CALM      30.30S
LEONARDTOWN*   CLEAR     28  23  80 CALM      30.32S

$$

MDZ003>005-210500-
NORTH CENTRAL MARYLAND

CITY           SKY/WX    TMP DP  RH WIND       PRES   REMARKS
FREDERICK*     CLOUDY    32  23  69 CALM      30.32S
HAGERSTOWN APT CLOUDY    31  21  66 CALM      30.27R
WESTMINSTER*   CLOUDY    30  21  69 CALM      30.27R

$$

MDZ501>502-210500-
WESTERN MARYLAND

CITY           SKY/WX    TMP DP  RH WIND       PRES   REMARKS
OAKLAND*       CLOUDY    23 N/A N/A CALM      30.15R
CUMBERLAND*    MOCLDY    30  25  80 CALM      30.30S

$$

VAZ025>031-210500-
SHENANDOAH VALLEY

CITY           SKY/WX    TMP DP  RH WIND       PRES   REMARKS
WINCHESTER*    CLOUDY    30  23  74 CALM      30.27S
FRONT ROYAL*   CLOUDY    32  23  69 CALM      30.26R
LURAY*         CLOUDY    32  28  86 CALM      30.26R
NEW MARKET*    CLOUDY    31  26  81 CALM      30.25R
STAUNTON*      CLOUDY    32  27  80 CALM      30.25S
WAYNESBORO*    CLOUDY    32  25  76 CALM      30.22S

$$

WVZ021-048>050-054>055-210500-
EASTERN WEST VIRGINIA PANHANDLE

CITY           SKY/WX    TMP DP  RH WIND       PRES   REMARKS
MARTINSBURG    MOCLDY    29  21  72 CALM      30.28R
PETERSBURG*    CLOUDY    32  28  83 CALM      30.26S

$$

VAZ036>039-050-210500-
CENTRAL FOOTHILLS

CITY           SKY/WX    TMP DP  RH WIND       PRES   REMARKS
CHARLOTTESVILL CLOUDY    33  25  72 CALM      30.27S
CULPEPER*      CLOUDY    34  28  80 CALM      30.30R
ORANGE*        CLOUDY    34  28  80 CALM      30.30S
GORDONSVILLE*  CLOUDY    32  27  83 CALM      30.28S
WARRENTON*     CLOUDY    32  32  98 CALM      30.29S

$$

VAZ055>057-210500-
NORTH AND CENTRAL PIEDMONT

CITY           SKY/WX    TMP DP  RH WIND       PRES   REMARKS
FREDERICKSBRG* CLOUDY    34  27  76 CALM      30.30S
STAFFORD*      CLOUDY    31  26  80 CALM      30.34S

$$

NCZ024-NYZ072-PAZ021-071-VAZ022-071-210500-
OTHER REGIONAL OBSERVATIONS

CITY           SKY/WX    TMP DP  RH WIND       PRES   REMARKS
NEW YORK CITY  CLOUDY    32  21  64 CALM      30.31S
PHILADELPHIA   CLOUDY    34  22  61 S3        30.32R
PITTSBURGH     CLOUDY    28  20  71 CALM      30.25F
ROANOKE        CLOUDY    36  25  64 SE5       30.26S
RICHMOND       CLOUDY    36  23  59 CALM      30.30S
RALEIGH        CLOUDY    38  34  85 CALM      30.28S FOG

$$

ANZ530>537-210500-
MARINE OBSERVATIONS

STATION/POSITION TIME  TEMP    WIND        PRES
                       AIR SEA DIR/SP/G
                 (UTC) (F)     (DEG/KT/KT) (MB)
THOMAS PT LIGHT  0400   36 41  100/  3/  3 1027.3R
BALT KEY BRIDGE  0400   35     230/  2/  3 1026.2S
COVE POINT       0400   34     300/  4/  5 1026.0S
LEWISETTA        0400   35 41  280/  4/  4 1026.0R
SOLOMONS ISLAND  0400      43                N/A

$$



USA.gov is the U.S. government's official web portal to all federal, state and local government web resources and services.